Sioux City, IA

3:22 AM CDT on July 23, 2017 (GMT -0500)
Sioux Gateway

Weather History for KSUX - May, 2013

Change the Weather History Date:

Saturday, May 25, 2013

  Actual Average Record
Temperature  
Mean Temperature 64 °F 64 °F  
Max Temperature 72 °F 76 °F 102 °F (1967)
Min Temperature 56 °F 52 °F 36 °F (1925)
Degree Days  
Heating Degree Days 1 4  
Month to date heating degree days 219 164  
Since 1 July heating degree days 7047 6816  
Cooling Degree Days 0 2  
Month to date cooling degree days 39 36  
Year to date cooling degree days 40 47  
Growing Degree Days 14 (Base 50)    
Moisture  
Dew Point 55 °F    
Average Humidity 78    
Maximum Humidity 100    
Minimum Humidity 56    
Precipitation  
Precipitation 0.09 in 0.12 in 2.81 in (2011)
Month to date precipitation 3.33 2.97  
Year to date precipitation 11.38 9.21  
Snow  
Snow 0.00 in 0.00 in 0.00 in ()
Month to date snowfall 1.4 0.2  
Since 1 July snowfall 45.1 35.0  
Snow Depth 0.00 in    
Sea Level Pressure  
Sea Level Pressure 30.03 in    
Wind  
Wind Speed 14 mph (ESE)    
Max Wind Speed 23 mph    
Max Gust Speed 30 mph    
Visibility 10 miles    
Events Rain , Thunderstorm    
T = Trace of Precipitation, MM = Missing Value Source: NWS Daily Summary

Daily Weather History Graph

Daily Weather History Graph

Search for Another Location

Airport or City:

Trip Planner

Search our weather history database for the weather conditions in past years. The results will help you decide how hot, cold, wet, or windy it might be!

Date:

Astronomy

May. 25, 2013 Rise Set
Actual Time 5:55 AM CDT 8:50 PM CDT
Civil Twilight 5:21 AM CDT 9:23 PM CDT
Nautical Twilight 4:39 AM CDT 10:06 PM CDT
Astronomical Twilight 3:50 AM CDT 10:55 PM CDT
Moon 9:39 PM CDT (5/25) 6:23 AM CDT (5/25)
Length of Visible Light 16h 01m
Length of Day
14h 55m
Full, 100% of the Moon is Illuminated
May 25
Full
May 31
Last Quarter
Jun 8
New
Jun 16
First Quarter
Jun 23
Full

Hourly Weather History & Observations

Time (CDT) Temp. Dew Point Humidity Pressure Visibility Wind Dir Wind Speed Gust Speed Precip Events Conditions
12:52 AM 63.0 °F 46.9 °F 56% 30.06 in 10.0 mi SE 15.0 mph 20.7 mph N/A   Overcast
1:52 AM 62.1 °F 46.9 °F 58% 30.04 in 10.0 mi SE 15.0 mph - N/A   Overcast
2:52 AM 62.1 °F 46.0 °F 56% 30.03 in 10.0 mi SE 12.7 mph - N/A Thunderstorm Thunderstorm
3:39 AM 60.8 °F 46.4 °F 59% 30.04 in 10.0 mi SE 12.7 mph - N/A   Overcast
3:52 AM 61.0 °F 48.0 °F 62% 30.03 in 10.0 mi SE 10.4 mph - N/A   Overcast
4:52 AM 55.9 °F 51.1 °F 84% 30.02 in 10.0 mi ESE 10.4 mph - N/A   Partly Cloudy
5:52 AM 57.0 °F 52.0 °F 83% 30.01 in 10.0 mi SE 5.8 mph 17.3 mph 0.00 in Rain Light Rain
6:52 AM 57.0 °F 54.0 °F 89% 29.99 in 10.0 mi ENE 10.4 mph - 0.01 in   Mostly Cloudy
7:08 AM 57.2 °F 53.6 °F 88% 30.03 in 10.0 mi ENE 9.2 mph - N/A   Mostly Cloudy
7:18 AM 57.2 °F 53.6 °F 88% 30.05 in 10.0 mi NNW 6.9 mph - N/A   Overcast
7:52 AM 57.9 °F 55.0 °F 90% 30.05 in 10.0 mi ENE 6.9 mph - N/A   Overcast
8:52 AM 60.1 °F 55.9 °F 86% 30.06 in 10.0 mi Calm Calm - N/A   Overcast
9:36 AM 62.6 °F 55.4 °F 77% 30.05 in 10.0 mi ESE 3.5 mph - N/A   Scattered Clouds
9:45 AM 62.6 °F 55.4 °F 77% 30.04 in 10.0 mi ESE 6.9 mph - N/A   Mostly Cloudy
9:52 AM 62.1 °F 55.9 °F 80% 30.04 in 10.0 mi SE 6.9 mph - N/A   Mostly Cloudy
10:52 AM 63.0 °F 57.0 °F 81% 30.04 in 10.0 mi ESE 13.8 mph - N/A   Overcast
11:52 AM 63.0 °F 57.0 °F 81% 30.04 in 10.0 mi East 13.8 mph - N/A   Overcast
12:52 PM 63.0 °F 57.0 °F 81% 30.06 in 10.0 mi ESE 17.3 mph 20.7 mph N/A   Overcast
1:52 PM 64.0 °F 57.9 °F 80% 30.04 in 10.0 mi ESE 13.8 mph - N/A   Overcast
2:52 PM 66.0 °F 59.0 °F 78% 30.04 in 10.0 mi ESE 13.8 mph - N/A   Overcast
3:01 PM 66.2 °F 59.0 °F 78% 30.04 in 10.0 mi ESE 15.0 mph - N/A   Mostly Cloudy
3:52 PM 70.0 °F 60.1 °F 71% 30.02 in 10.0 mi ESE 15.0 mph 21.9 mph N/A   Mostly Cloudy
4:04 PM 69.8 °F 60.8 °F 73% 30.03 in 10.0 mi ESE 15.0 mph - N/A   Scattered Clouds
4:52 PM 72.0 °F 61.0 °F 68% 30.02 in 10.0 mi SE 15.0 mph 21.9 mph N/A   Scattered Clouds
5:52 PM 71.1 °F 61.0 °F 70% 30.01 in 10.0 mi ESE 17.3 mph - N/A   Scattered Clouds
6:00 PM 69.8 °F 60.8 °F 73% 30.01 in 10.0 mi East 13.8 mph 23.0 mph N/A   Mostly Cloudy
6:10 PM 69.8 °F 60.8 °F 73% 30.00 in 10.0 mi East 13.8 mph 21.9 mph N/A   Scattered Clouds
6:33 PM 69.8 °F 60.8 °F 73% 30.00 in 10.0 mi ESE 16.1 mph - N/A   Mostly Cloudy
6:52 PM 68.0 °F 59.0 °F 73% 29.99 in 10.0 mi East 16.1 mph - N/A   Overcast
7:52 PM 64.9 °F 57.9 °F 78% 29.98 in 10.0 mi East 21.9 mph 29.9 mph N/A   Overcast
8:15 PM 64.4 °F 57.2 °F 77% 29.99 in 10.0 mi ESE 17.3 mph 27.6 mph N/A   Overcast
8:52 PM 62.1 °F 57.0 °F 84% 29.99 in 10.0 mi East 18.4 mph 27.6 mph N/A   Overcast
9:35 PM 60.8 °F 55.4 °F 82% 30.03 in 10.0 mi East 18.4 mph 24.2 mph N/A   Overcast
9:52 PM 59.0 °F 55.9 °F 90% 30.04 in 10.0 mi ESE 16.1 mph 26.5 mph N/A   Overcast
10:52 PM 57.9 °F 55.0 °F 90% 30.04 in 10.0 mi ESE 20.7 mph 25.3 mph N/A   Overcast
11:17 PM 57.2 °F 55.4 °F 94% 30.02 in 5.0 mi ESE 19.6 mph 27.6 mph 0.01 in Rain , Thunderstorm Rain
11:27 PM 57.2 °F 55.4 °F 94% 30.01 in 6.0 mi ESE 16.1 mph 26.5 mph 0.08 in Rain , Thunderstorm Light Rain
11:52 PM 55.9 °F 55.0 °F 97% 30.01 in 6.0 mi ESE 16.1 mph - 0.08 in   Overcast